Meteo orario Abdulkarimovo

Oggi, 6 Marzo, Sabato

Tempo Temperatura Precipitazioni Vento Pressione Umidità
00:00 -9°C° 0 mm 4 m/s 715 mm Hg 91%
01:00 -9°C° 0 mm 3 m/s 715 mm Hg 93%
02:00 -10°C° 0 mm 3 m/s 716 mm Hg 93%
03:00 -12°C° 0 mm 2 m/s 716 mm Hg 94%
04:00 -12°C° 0 mm 2 m/s 716 mm Hg 94%
05:00 -12°C° 0 mm 2 m/s 716 mm Hg 95%
06:00 -13°C° 0 mm 2 m/s 716 mm Hg 95%
07:00 -14°C° 0 mm 2 m/s 717 mm Hg 95%
08:00 -12°C° 0 mm 2 m/s 717 mm Hg 91%
09:00 -9°C° 0 mm 2 m/s 718 mm Hg 86%
10:00 -8°C° 0 mm 3 m/s 719 mm Hg 81%
11:00 -8°C° 0 mm 3 m/s 719 mm Hg 78%
12:00 -7°C° 0 mm 3 m/s 719 mm Hg 76%
13:00 -6°C° 0 mm 3 m/s 719 mm Hg 73%
14:00 -7°C° 0 mm 3 m/s 719 mm Hg 76%
15:00 -7°C° 0 mm 3 m/s 719 mm Hg 78%
16:00 -7°C° 0 mm 3 m/s 719 mm Hg 81%
17:00 -8°C° 0 mm 2 m/s 718 mm Hg 83%
18:00 -9°C° 0 mm 2 m/s 718 mm Hg 86%
19:00 -10°C° 0 mm 1 m/s 718 mm Hg 89%
20:00 -10°C° 0 mm 1 m/s 718 mm Hg 88%
21:00 -10°C° 0 mm 1 m/s 718 mm Hg 88%
22:00 -10°C° 0 mm 0 m/s 717 mm Hg 87%
23:00 -10°C° 0 mm 0 m/s 717 mm Hg 87%

Domani, 7 Marzo, Domenica

Tempo Temperatura Precipitazioni Vento Pressione Umidità
00:00 -9°C° 0 mm 0 m/s 716 mm Hg 88%
01:00 -9°C° 0 mm 0 m/s 715 mm Hg 89%
02:00 -9°C° 0.4 mm 1 m/s 715 mm Hg 91%
03:00 -10°C° 0.4 mm 2 m/s 715 mm Hg 93%
04:00 -12°C° 0.4 mm 3 m/s 714 mm Hg 95%
05:00 -12°C° 0.9 mm 3 m/s 713 mm Hg 95%
06:00 -12°C° 0.9 mm 4 m/s 713 mm Hg 95%
07:00 -12°C° 0.9 mm 4 m/s 712 mm Hg 95%
08:00 -11°C° 0.7 mm 4 m/s 712 mm Hg 94%
09:00 -11°C° 0.7 mm 4 m/s 711 mm Hg 94%
10:00 -11°C° 0.7 mm 4 m/s 711 mm Hg 94%
11:00 -10°C° 0.6 mm 4 m/s 711 mm Hg 94%
12:00 -10°C° 0.6 mm 4 m/s 711 mm Hg 93%
13:00 -9°C° 0.6 mm 4 m/s 711 mm Hg 93%
14:00 -11°C° 0.3 mm 5 m/s 712 mm Hg 90%
15:00 -11°C° 0.3 mm 5 m/s 712 mm Hg 87%
16:00 -11°C° 0.3 mm 6 m/s 713 mm Hg 84%
17:00 -13°C° 0 mm 5 m/s 714 mm Hg 85%
18:00 -15°C° 0 mm 5 m/s 714 mm Hg 87%
19:00 -17°C° 0 mm 4 m/s 715 mm Hg 88%
20:00 -18°C° 0 mm 4 m/s 716 mm Hg 90%
21:00 -19°C° 0 mm 3 m/s 716 mm Hg 92%
22:00 -21°C° 0 mm 3 m/s 717 mm Hg 94%
23:00 -21°C° 0 mm 3 m/s 717 mm Hg 94%

Dopodomani, 8 Marzo, Lunedi

Tempo Temperatura Precipitazioni Vento Pressione Umidità
00:00 -22°C° 0 mm 3 m/s 717 mm Hg 95%
01:00 -22°C° 0 mm 3 m/s 717 mm Hg 96%
02:00 -21°C° 0 mm 3 m/s 717 mm Hg 94%
03:00 -21°C° 0 mm 3 m/s 717 mm Hg 93%
04:00 -19°C° 0 mm 3 m/s 717 mm Hg 92%
05:00 -20°C° 0 mm 4 m/s 717 mm Hg 92%
06:00 -19°C° 0 mm 4 m/s 717 mm Hg 93%
07:00 -19°C° 0 mm 5 m/s 717 mm Hg 93%
08:00 -17°C° 0 mm 6 m/s 717 mm Hg 92%
09:00 -17°C° 0 mm 7 m/s 716 mm Hg 91%
10:00 -16°C° 0 mm 8 m/s 716 mm Hg 90%
11:00 -13°C° 0.2 mm 8 m/s 716 mm Hg 90%
12:00 -12°C° 0.2 mm 9 m/s 716 mm Hg 90%
13:00 -11°C° 0.2 mm 9 m/s 716 mm Hg 91%
14:00 -11°C° 0.2 mm 9 m/s 715 mm Hg 90%
15:00 -11°C° 0.2 mm 9 m/s 715 mm Hg 90%
16:00 -10°C° 0.2 mm 9 m/s 715 mm Hg 90%
17:00 -11°C° 0.2 mm 9 m/s 715 mm Hg 90%
18:00 -11°C° 0.2 mm 8 m/s 715 mm Hg 90%
19:00 -11°C° 0.2 mm 7 m/s 715 mm Hg 90%
20:00 -9°C° 0.2 mm 7 m/s 715 mm Hg 91%
21:00 -9°C° 0.2 mm 7 m/s 715 mm Hg 91%
22:00 -9°C° 0.2 mm 7 m/s 715 mm Hg 92%
23:00 -9°C° 0.2 mm 7 m/s 715 mm Hg 92%

9 Marzo, Martedi

Tempo Temperatura Precipitazioni Vento Pressione Umidità
00:00 -9°C° 0.2 mm 7 m/s 714 mm Hg 92%
01:00 -11°C° 0.2 mm 7 m/s 714 mm Hg 93%
02:00 -11°C° 0.2 mm 7 m/s 714 mm Hg 92%
03:00 -11°C° 0.2 mm 7 m/s 713 mm Hg 92%
04:00 -11°C° 0.2 mm 7 m/s 713 mm Hg 92%
05:00 -11°C° 0.2 mm 7 m/s 713 mm Hg 92%
06:00 -9°C° 0.2 mm 7 m/s 714 mm Hg 92%
07:00 -9°C° 0.2 mm 7 m/s 714 mm Hg 92%
08:00 -11°C° 0.2 mm 7 m/s 715 mm Hg 89%
09:00 -11°C° 0.2 mm 6 m/s 715 mm Hg 85%
10:00 -11°C° 0.2 mm 6 m/s 716 mm Hg 82%
11:00 -11°C° 0 mm 5 m/s 716 mm Hg 81%
12:00 -10°C° 0 mm 5 m/s 717 mm Hg 79%
13:00 -10°C° 0 mm 5 m/s 717 mm Hg 78%
14:00 -10°C° 0 mm 5 m/s 717 mm Hg 79%
15:00 -11°C° 0 mm 5 m/s 717 mm Hg 80%
16:00 -10°C° 0 mm 4 m/s 718 mm Hg 81%
17:00 -12°C° 0 mm 4 m/s 717 mm Hg 85%
18:00 -14°C° 0 mm 3 m/s 717 mm Hg 88%
19:00 -16°C° 0 mm 3 m/s 717 mm Hg 92%
20:00 -17°C° 0 mm 3 m/s 717 mm Hg 93%
21:00 -16°C° 0 mm 2 m/s 718 mm Hg 94%
22:00 -17°C° 0 mm 2 m/s 718 mm Hg 95%
23:00 -17°C° 0 mm 2 m/s 718 mm Hg 94%

10 Marzo, Mercoledi

Tempo Temperatura Precipitazioni Vento Pressione Umidità
00:00 -15°C° 0 mm 1 m/s 717 mm Hg 94%
01:00 -15°C° 0 mm 1 m/s 717 mm Hg 94%
02:00 -15°C° 0 mm 1 m/s 717 mm Hg 93%
03:00 -16°C° 0 mm 0 m/s 717 mm Hg 92%
04:00 -16°C° 0 mm 0 m/s 717 mm Hg 91%
05:00 -17°C° 0 mm 0 m/s 716 mm Hg 91%
06:00 -17°C° 0 mm 0 m/s 716 mm Hg 90%
07:00 -17°C° 0 mm 0 m/s 716 mm Hg 90%
08:00 -15°C° 0 mm 0 m/s 716 mm Hg 87%
09:00 -13°C° 0 mm 0 m/s 716 mm Hg 85%
10:00 -11°C° 0 mm 1 m/s 716 mm Hg 82%
11:00 -10°C° 0 mm 1 m/s 715 mm Hg 83%
12:00 -10°C° 0 mm 1 m/s 715 mm Hg 84%
13:00 -10°C° 0 mm 2 m/s 715 mm Hg 85%
14:00 -10°C° 0.3 mm 2 m/s 714 mm Hg 88%
15:00 -12°C° 0.3 mm 3 m/s 713 mm Hg 91%
16:00 -12°C° 0.3 mm 3 m/s 713 mm Hg 94%
17:00 -13°C° 0.4 mm 3 m/s 712 mm Hg 94%
18:00 -15°C° 0.4 mm 4 m/s 712 mm Hg 94%
19:00 -15°C° 0.4 mm 4 m/s 712 mm Hg 95%
20:00 -16°C° 0.2 mm 4 m/s 712 mm Hg 94%
21:00 -16°C° 0.2 mm 4 m/s 713 mm Hg 94%
22:00 -16°C° 0.2 mm 3 m/s 713 mm Hg 94%
23:00 -17°C° 0.1 mm 4 m/s 713 mm Hg 94%

11 Marzo, Giovedi

Tempo Temperatura Precipitazioni Vento Pressione Umidità
00:00 -18°C° 0.1 mm 4 m/s 713 mm Hg 94%
01:00 -18°C° 0.1 mm 4 m/s 713 mm Hg 94%
02:00 -19°C° 0.1 mm 4 m/s 714 mm Hg 94%
03:00 -19°C° 0.1 mm 3 m/s 714 mm Hg 94%
04:00 -21°C° 0.1 mm 3 m/s 715 mm Hg 94%
05:00 -21°C° 0 mm 3 m/s 715 mm Hg 94%
06:00 -22°C° 0 mm 3 m/s 716 mm Hg 95%
07:00 -22°C° 0 mm 3 m/s 717 mm Hg 95%
08:00 -22°C° 0 mm 3 m/s 718 mm Hg 93%
09:00 -21°C° 0 mm 3 m/s 718 mm Hg 91%
10:00 -20°C° 0 mm 4 m/s 719 mm Hg 89%
11:00 -19°C° 0 mm 4 m/s 720 mm Hg 87%
12:00 -18°C° 0 mm 4 m/s 720 mm Hg 86%
13:00 -17°C° 0 mm 4 m/s 721 mm Hg 84%
14:00 -19°C° 0 mm 5 m/s 721 mm Hg 85%
15:00 -19°C° 0 mm 5 m/s 721 mm Hg 86%
16:00 -19°C° 0 mm 5 m/s 722 mm Hg 87%
17:00 -21°C° 0 mm 5 m/s 722 mm Hg 89%
18:00 -25°C° 0 mm 5 m/s 722 mm Hg 91%
19:00 -26°C° 0 mm 4 m/s 723 mm Hg 93%
20:00 -26°C° 0 mm 4 m/s 723 mm Hg 93%
21:00 -27°C° 0 mm 4 m/s 724 mm Hg 93%
22:00 -29°C° 0 mm 4 m/s 724 mm Hg 93%
23:00 -29°C° 0 mm 4 m/s 725 mm Hg 93%
Mostrare altro

Abbiamo bisogno del tuo consenso

Meteoprog e i nostri fornitori di servizi possono memorizzare e accedere a dati personali come cookie, identificatori di dispositivi o altre tecnologie simili sul tuo dispositivo e possono elaborare tali dati per personalizzare i contenuti e gli annunci, nonché fornire funzionalità dei social media e analizzarne il traffico.

  • Archiviare e/o accedere alle informazioni sul tuo dispositivo

    Cookie, identificatori di dispositivi o altre informazioni possono essere memorizzati o resi accessibili sul tuo dispositivo per le finalità sopra indicate.

  • Annunci e contenuti personalizzati, misurazione di annunci e contenuti, approfondimenti sul pubblico e sviluppo di prodotti

    Gli annunci e i contenuti possono essere personalizzati in base a un profilo. È possibile aggiungere più dati per personalizzare meglio annunci e contenuti. È possibile misurare il rendimento degli annunci e dei contenuti. È possibile ricavare informazioni sul pubblico che ha visto gli annunci e i contenuti. Tali dati possono essere utilizzati per sviluppare o migliorare l'esperienza, i sistemi e il software dell'utente.

Cliccando su “Accetto”, acconsenti all'uso di cookie, identificatori di dispositivo, web beacon o altre tecnologie simili. Puoi modificare le impostazioni nel browser del tuo dispositivo.

Per determinati scopi, è possibile fare affidamento su interessi legali, piuttosto che sul consenso. Puoi approfondire questo argomento consultando la nostra Informativa sulla privacy e sui cookie.